HST 1 20580U 90037B 21017.59662416 .00000496 00000-0 19107-4 0 9995 2 20580 28.4711 343.1776 0002523 233.6918 289.6457 15.09536679488287 ISS (ZARYA) 1 25544U 98067A 21017.90543098 .00000437 00000-0 15913-4 0 9996 2 25544 51.6468 6.0348 0000298 263.4064 181.3073 15.49297609265308 CXO 1 25867U 99040B 21020.01539455 .00000345 00000-0 00000-0 0 9999 2 25867 58.3870 260.6563 8086125 226.4015 0.2348 0.37802350 9878